SCP
3 4 4 4 4 3 3 2 2 2 2 2 2 2 2 1 1 1 1 1 1 1 1 1 1 0 0 0 0 0 0 0 0 0 0 0 0 0 0 0 0 0 0
3 4 4 5 4 3 3 2 2 2 2 2 2 2 2 1 1 1 1 1 1 1 1 1 0 0 0 0 0 0 0 0 0 0 0 0 0 0 0 0 0 0 0
3 4 4 5 4 3 2 2 2 2 2 2 2 2 2 1 1 1 1 1 1 1 0 0 0 0 0 0 0 0 0 0 0 0 0 0 0 0 0 0 0 0 0
4 4 4 5 4 3 3 2 2 2 2 2 2 2 2 1 1 1 1 1 1 1 1 0 0 0 1 1 0 0 0 0 0 0 0 0 0 0 0 0 0 0 0
4 4 5 5 4 4 3 3 2 2 2 2 2 2 2 2 1 1 1 1 1 1 1 1 1 1 1 1 0 1 0 0 0 0 0 0 0 0 1 1 1 0 0
4 4 5 5 4 4 4 3 3 2 2 2 2 2 2 2 2 2 1 1 1 1 1 1 1 1 1 0 0 0 0 0 0 0 0 0 0 0 0 0 1 1 1
5 5 5 5 4 4 4 3 3 2 2 2 2 2 2 2 2 2 2 2 2 2 2 1 1 1 1 0 0 0 0 0 0 0 0 0 0 0 0 0 1 1 1
5 4 4 4 4 4 4 3 3 3 3 2 2 2 2 2 3 3 3 3 3 3 2 2 2 1 1 1 1 1 1 0 0 0 0 0 0 0 0 0 1 1 2
4 4 4 4 4 3 3 3 3 3 3 3 2 2 2 2 3 3 3 3 3 3 3 3 3 3 3 2 2 2 1 0 0 0 0 0 0 0 0 0 1 2 2
3 3 3 3 3 3 3 3 3 3 3 3 2 2 2 2 2 3 3 3 3 3 4 4 4 4 4 4 3 2 2 1 1 1 1 1 1 1 1 1 1 2 2
2 2 2 3 3 3 2 2 3 3 3 3 2 2 1 2 2 2 2 2 2 3 3 4 5 5 4 4 3 3 2 2 2 2 2 1 1 1 2 2 2 2 2
2 2 2 3 3 3 3 3 3 3 3 3 2 2 1 1 2 2 2 1 2 2 3 3 4 4 4 3 3 3 3 3 3 3 2 1 1 2 3 4 4 3 3
2 2 2 3 3 3 4 4 4 4 4 3 2 2 1 2 2 2 1 1 2 2 3 3 3 3 3 3 3 3 3 3 3 3 2 1 1 2 3 4 5 5 4
2 2 2 2 3 4 4 4 4 4 4 4 3 2 2 2 2 2 2 1 1 2 2 2 1 1 1 1 2 2 2 2 2 1 1 1 1 1 2 3 4 5 5
2 2 2 2 3 4 4 4 4 4 4 4 3 2 1 1 2 2 1 1 1 1 1 1 1 1 0 1 1 1 1 1 1 1 1 0 0 0 1 2 3 5 5
2 2 2 2 2 3 5 5 4 4 4 4 3 2 1 1 1 1 1 1 1 1 1 1 1 1 0 0 0 0 0 0 0 0 0 0 0 0 1 2 3 4 4
1 1 1 1 2 3 4 5 4 3 4 4 3 2 1 1 1 1 1 1 1 1 1 1 1 0 0 0 0 0 0 0 0 0 0 0 0 0 0 1 1 2 2
0 0 0 0 1 3 4 5 4 3 3 4 3 2 1 1 1 1 1 1 1 1 1 1 0 0 0 0 0 0 0 0 0 0 0 0 0 0 0 0 1 1 1
0 0 0 0 1 3 4 5 3 3 3 3 3 2 1 1 1 1 1 1 1 1 1 1 0 0 0 0 0 0 0 0 0 0 0 0 0 0 0 0 0 0 1
0 0 0 0 1 3 4 4 3 2 3 2 2 2 1 1 1 1 1 1 1 1 1 1 1 1 1 0 0 0 0 0 0 0 0 0 0 0 0 0 0 0 0
0 0 0 0 1 2 3 3 2 2 2 2 2 2 1 1 1 1 1 1 1 1 1 1 1 1 1 0 0 0 0 0 0 0 0 0 0 0 0 0 0 0 0
0 0 0 0 0 1 1 1 1 1 1 1 2 2 2 1 1 2 2 1 1 1 1 1 1 1 1 0 0 0 0 0 0 0 0 0 0 0 0 0 0 0 0
0 0 0 0 0 0 0 0 0 0 1 1 1 1 1 1 2 2 2 2 2 2 2 1 1 1 0 0 0 0 0 0 0 0 0 0 0 0 0 0 0 0 0
0 0 0 0 0 0 0 0 0 0 0 0 1 1 1 1 2 2 2 2 2 1 1 1 1 0 0 0 0 0 0 0 0 0 0 0 0 0 0 0 0 0 0
0 0 0 0 0 0 0 0 0 0 0 0 0 1 1 1 1 1 1 1 1 1 1 1 0 0 0 0 0 0 0 0 0 0 0 0 0 0 0 0 0 0 0
0 0 0 0 0 0 0 0 0 0 0 0 0 0 0 1 1 1 1 1 1 0 0 0 0 0 0 0 0 0 0 0 0 0 0 0 0 0 0 0 0 0 0
Wind_Speed
6 7 8 7 8 8 8 9 9 8 8 8 8 9 8 8 7 7 7 7 7 7 7 7 7 7 6 7 7 7 7 7 7 7 6 6 6 6 6 4 2 5 7
7 8 8 7 7 8 8 8 8 8 7 7 8 8 8 7 7 6 6 6 6 7 7 7 7 7 7 6 6 6 6 6 6 5 3 4 4 4 4 3 3 4 5
8 8 9 7 7 8 8 7 7 7 7 7 7 7 7 7 6 6 5 5 5 6 6 6 6 5 6 6 5 5 4 4 4 2 3 2 5 4 3 2 2 3 3
7 7 7 7 8 8 8 7 7 7 7 6 6 6 6 6 6 5 5 5 5 5 5 5 4 4 4 4 4 3 3 3 2 3 2 2 2 4 2 1 1 2 1
6 7 8 6 8 8 8 7 7 7 7 6 6 6 6 6 6 5 5 5 4 4 4 4 4 3 3 3 3 3 2 2 2 5 0 1 1 3 0 0 0 0 0
6 6 8 6 8 8 7 7 6 6 7 6 6 5 5 5 6 6 5 4 4 4 4 3 3 3 2 2 1 1 1 0 5 2 1 1 0 2 1 2 2 2 2
6 6 8 7 7 8 8 7 6 6 6 6 6 5 5 5 5 5 5 4 4 4 3 3 3 2 2 1 1 1 1 2 4 2 1 1 0 0 2 2 3 3 3
5 6 7 7 7 7 8 7 7 6 6 6 6 5 5 5 5 5 4 4 3 3 3 2 2 2 1 1 1 1 0 4 3 3 2 2 1 2 3 3 3 3 3
5 5 6 6 7 7 7 6 7 6 5 5 6 6 5 5 4 4 4 3 3 3 3 2 2 2 1 1 1 0 1 3 5 2 3 2 0 3 4 4 4 4 4
4 4 5 5 5 6 6 7 6 6 5 6 6 6 5 4 4 4 3 4 3 3 2 2 2 1 1 1 1 0 2 5 4 3 2 0 2 5 5 5 5 5 5
4 3 4 5 4 4 5 6 5 5 5 4 5 5 3 2 2 2 4 4 4 3 2 2 2 1 1 1 1 1 4 4 3 3 2 2 4 5 5 5 5 5 6
4 3 2 4 4 4 4 4 3 3 3 2 3 3 2 2 2 1 4 3 2 2 1 1 0 1 3 2 2 4 3 4 3 2 1 2 4 5 6 6 6 6 6
4 3 2 3 4 4 3 2 2 2 2 2 3 2 2 2 1 1 0 1 1 1 1 0 2 1 2 2 2 2 3 3 2 2 1 1 4 6 6 6 5 6 6
4 4 3 2 3 3 3 2 2 2 2 2 2 2 1 1 1 1 1 1 1 1 1 1 2 2 2 3 3 3 3 3 2 2 1 1 4 5 6 6 6 6 6
4 3 3 2 3 3 3 2 2 2 2 2 2 2 2 1 1 1 1 1 1 1 1 2 2 2 2 3 3 3 3 3 3 3 1 1 3 5 6 6 6 6 6
4 3 3 2 3 4 3 2 2 2 2 2 2 3 2 1 1 1 1 1 2 2 2 2 2 2 2 2 3 3 3 3 3 3 3 1 1 3 5 6 6 5 5
4 4 3 3 3 3 3 3 2 2 2 2 2 3 2 2 2 1 1 1 2 2 3 2 2 2 2 2 3 3 3 3 3 3 3 3 2 1 2 4 4 4 5
4 4 4 3 2 3 3 3 2 2 2 2 2 2 3 3 2 2 1 1 2 2 2 2 2 2 2 2 3 2 2 2 3 3 3 3 3 2 1 1 3 4 5
4 4 4 3 2 3 3 3 3 2 3 2 2 2 3 3 2 2 2 2 2 2 2 2 2 2 2 2 3 3 2 2 2 3 3 3 3 3 3 1 1 3 4
3 3 3 3 2 3 3 3 2 2 2 2 2 2 3 3 3 2 2 2 2 2 2 2 3 2 2 2 3 3 2 2 2 2 2 2 2 3 3 3 2 1 2
3 3 3 2 2 2 2 1 1 1 1 1 2 3 3 3 3 3 2 3 3 2 2 3 3 3 2 2 2 2 2 2 2 1 2 2 2 2 3 3 3 3 2
4 4 3 2 2 2 1 1 1 1 1 1 1 2 2 2 3 2 2 2 3 2 3 3 3 2 2 2 2 3 2 3 2 2 1 1 2 2 2 3 3 3 3
3 3 3 2 2 2 2 1 1 1 1 1 1 0 1 2 2 2 2 2 2 2 3 3 3 3 2 1 2 3 3 3 3 2 2 2 2 2 2 3 3 3 4
3 3 3 3 3 2 2 1 1 1 0 0 0 0 0 1 1 1 1 2 2 2 2 3 3 3 3 2 2 2 3 3 4 3 2 2 3 3 3 3 3 3 4
3 3 3 3 3 2 2 2 1 1 0 0 0 0 0 0 0 1 1 1 2 2 2 2 3 2 2 3 2 2 3 3 4 4 5 4 3 3 3 4 3 3 3
3 3 3 4 3 3 2 2 2 1 1 0 1 1 1 1 0 1 1 1 2 2 2 3 3 3 3 3 3 3 3 3 3 4 6 6 6 4 4 4 4 4 3
Wind_Direction
147 149 141 146 139 135 135 133 131 126 128 130 130 130 128 124 120 115 111 109 109 104 102 102 99 98 95 93 92 90 86 83 78 75 74 74 80 87 86 80 73 95 80
143 145 142 145 140 135 135 134 130 128 127 129 130 131 131 129 126 121 117 113 111 108 104 101 95 92 93 93 94 96 96 90 83 78 82 115 100 89 90 73 24 67 82
142 141 145 140 139 135 131 133 134 133 131 132 132 130 129 128 127 125 123 118 113 110 106 103 97 93 91 90 93 96 101 100 95 98 225 153 115 105 99 101 88 89 89
142 144 140 135 140 134 131 134 140 136 133 131 134 132 130 128 124 120 120 114 113 108 105 101 98 97 96 95 94 99 103 106 113 234 219 99 111 104 93 106 123 97 100
143 144 130 130 140 136 132 133 139 139 134 128 129 131 130 128 123 118 115 106 104 103 104 105 101 99 98 106 102 101 99 101 194 237 126 98 112 103 72 324 256 282 252
144 142 130 125 133 134 129 124 125 132 131 123 124 128 128 124 117 110 104 101 98 96 97 98 100 98 97 105 111 110 98 81 241 222 214 221 136 102 242 258 262 256 263
134 133 135 124 122 125 124 120 113 117 121 117 112 117 122 118 110 103 101 102 103 102 99 94 94 97 97 104 102 98 85 285 274 257 250 254 16 304 255 247 254 257 255
125 131 131 119 115 119 118 115 108 106 113 113 103 95 103 108 106 102 101 101 103 103 98 90 84 85 97 100 90 62 348 281 261 259 256 263 28 269 263 261 256 259 254
113 131 137 137 129 118 110 106 102 94 100 106 105 90 80 90 96 97 93 94 96 90 84 77 70 70 71 70 69 46 312 285 270 264 262 265 337 260 263 267 261 257 257
102 118 134 139 136 134 129 105 100 91 91 99 98 94 91 96 102 96 95 75 73 76 73 67 58 46 38 42 41 13 274 257 260 259 259 320 293 268 269 269 267 260 259
99 115 134 138 132 127 129 121 117 109 96 121 117 110 139 133 113 124 74 60 56 53 55 54 46 29 312 184 167 273 251 260 270 276 282 9 293 279 277 274 272 270 265
110 92 131 139 135 124 122 133 127 124 125 119 116 127 129 101 73 51 98 72 60 44 66 56 25 233 255 241 188 227 254 273 276 268 321 2 291 285 283 278 272 273 272
120 101 86 123 128 123 115 119 121 124 119 106 95 105 108 101 96 66 77 139 161 221 268 189 229 265 294 305 293 277 289 286 280 282 334 352 295 289 289 285 273 271 272
119 111 99 102 115 114 113 109 122 117 105 96 82 70 86 84 62 50 24 2 330 321 322 307 309 314 302 298 293 292 286 276 278 281 339 2 301 294 292 288 286 279 273
120 112 98 97 110 107 111 110 102 106 96 92 75 61 55 70 69 44 17 10 350 337 319 310 298 313 306 308 303 300 295 287 281 275 251 141 297 299 295 290 287 287 287
127 116 101 94 101 102 102 100 87 97 95 77 71 63 52 45 48 23 8 359 352 337 321 303 310 308 304 303 303 300 296 290 283 285 291 234 218 295 303 299 298 297 298
133 123 108 90 95 103 95 88 81 91 92 79 64 58 56 44 32 8 2 357 344 333 325 312 318 302 300 296 291 299 301 299 292 292 294 296 281 245 289 301 304 308 310
135 128 111 97 106 108 99 94 82 85 92 84 73 63 59 48 36 20 2 358 343 331 329 327 317 305 301 298 301 305 296 293 290 298 296 294 294 293 267 306 309 316 317
144 136 123 108 120 108 99 96 84 92 86 80 73 58 54 50 37 34 9 355 341 334 338 337 321 313 306 308 307 300 295 288 285 290 294 300 301 302 301 321 288 309 315
136 129 124 112 118 112 102 96 92 95 90 81 71 56 46 47 37 30 18 0 348 338 340 338 329 320 308 307 298 292 284 279 272 285 296 305 318 312 309 308 290 282 293
137 126 119 111 115 117 110 108 126 113 110 97 74 58 48 40 33 31 18 6 356 346 338 334 330 316 322 319 287 279 260 255 261 285 308 315 324 321 317 314 312 308 303
148 141 137 124 106 103 99 80 54 92 125 93 72 61 45 40 28 17 14 5 359 344 337 342 338 319 322 333 305 288 269 230 207 277 280 305 313 317 321 325 325 318 311
160 156 143 133 123 114 106 115 125 140 149 142 128 82 34 33 34 12 3 354 350 344 342 336 328 313 301 302 310 294 289 288 308 239 263 282 298 304 307 312 313 312 309
170 158 156 153 145 130 135 153 151 152 101 44 350 3 27 29 28 19 348 339 336 328 327 329 319 304 292 283 290 294 296 304 286 283 254 263 286 294 299 301 304 308 308
164 159 161 155 147 149 159 155 159 144 101 76 330 354 328 60 22 5 327 324 321 309 310 310 312 303 294 291 288 284 276 277 274 279 284 289 283 281 294 296 294 294 297
156 159 163 163 164 169 178 176 177 183 185 202 266 300 302 303 297 315 301 304 306 301 300 301 298 293 289 289 286 281 277 274 276 274 279 290 293 292 290 288 289 292 297